This is the latest recevied weather packets stored in our database for station/object K1WJY. If no packets are shown the sender has not sent any weather packets the latest 10 day(s).
| Time | Temp. | Humidity | Pressure | Rain* | Wind** | Luminosity | Snow |
|---|---|---|---|---|---|---|---|
| 1787872050 | 20.56° C | 94% | 1019.4 hPa | 0 mm | - | 6 W/m² | - |
| 1787871746 | 20.56° C | 93% | 1019.7 hPa | 0 mm | - | 10 W/m² | - |
| 1787871441 | 21.11° C | 93% | 1019.7 hPa | 0 mm | - | 15 W/m² | - |
| 1787871136 | 21.11° C | 92% | 1019.5 hPa | 0 mm | - | 19 W/m² | - |
| 1787870836 | 21.11° C | 92% | 1019.5 hPa | 0 mm | - | 25 W/m² | - |
| 1787870531 | 21.11° C | 92% | 1019.6 hPa | 0 mm | - | 29 W/m² | - |
| 1787870226 | 21.67° C | 91% | 1019.6 hPa | 0 mm | - | 27 W/m² | - |
| 1787869921 | 21.67° C | 90% | 1019.7 hPa | 0 mm | - | 29 W/m² | - |
| 1787869620 | 21.67° C | 88% | 1019.7 hPa | 0 mm | - | 34 W/m² | - |
| 1787869315 | 22.22° C | 86% | 1019.8 hPa | 0 mm | - | 45 W/m² | - |
| 1787869014 | 22.22° C | 86% | 1019.5 hPa | 0 mm | - | 52 W/m² | - |
| 1787868713 | 22.22° C | 86% | 1019.3 hPa | 0 mm | - | 65 W/m² | - |
| 1787868412 | 22.22° C | 87% | 1019.8 hPa | 0 mm | - | 76 W/m² | - |
| 1787868107 | 22.22° C | 87% | 1019.8 hPa | 0 mm | - | 84 W/m² | - |
| 1787867802 | 22.22° C | 87% | 1019.7 hPa | 0 mm | - | 90 W/m² | - |
| 1787867498 | 22.22° C | 87% | 1020.1 hPa | 0 mm | - | 63 W/m² | - |
| 1787867197 | 22.22° C | 86% | 1020 hPa | 0 mm | - | 66 W/m² | - |
| 1787866893 | 22.78° C | 86% | 1020 hPa | 0 mm | - | 81 W/m² | - |
| 1787866588 | 22.78° C | 86% | 1020 hPa | 0 mm | - | 106 W/m² | - |
| 1787866286 | 22.78° C | 85% | 1020 hPa | 0 mm | - | 135 W/m² | - |
| 1787865981 | 22.78° C | 86% | 1019.9 hPa | 0 mm | - | 130 W/m² | - |
| 1787865678 | 22.22° C | 86% | 1019.8 hPa | 0 mm | - | 135 W/m² | - |
| 1787865377 | 22.22° C | 85% | 1020 hPa | 0 mm | - | 134 W/m² | - |
| 1787865072 | 22.78° C | 84% | 1020 hPa | 0 mm | - | 129 W/m² | - |
| 1787864768 | 22.78° C | 84% | 1019.9 hPa | 0 mm | - | 116 W/m² | - |
* Rain latest hour (hover to see other rain measurements)
** Current wind speed in m/s (hover to see current wind gust speed)